Satellite-Ground Cal/Val Region Overpasses Predictions

Prediction of Satellite NPP Overpassing Cal/Val Region: PacNW

Region Location: (Latitude: 10.00, Longitude: 139.50) to (Latitude: 22.70, Longitude: 165.60).

Table of predicted overpasses for the next 14.0 days since TLE Epoch: 5/15/2016
Interval Starting Time Starting Location Ending Time Ending Location
1 05/15/2016 15:24:55 ( 22.68, 153.94) 05/15/2016 15:28:30 ( 10.06, 150.94)
2 05/16/2016 02:34:00 ( 10.01, 161.47) 05/16/2016 02:37:36 ( 22.69, 158.46)
3 05/16/2016 15:05:54 ( 22.66, 158.69) 05/16/2016 15:09:29 ( 10.04, 155.69)
4 05/17/2016 02:15:45 ( 12.79, 165.59) 05/17/2016 02:18:33 ( 22.65, 163.22)
5 05/17/2016 03:56:28 ( 10.04, 140.85) 05/17/2016 03:58:06 ( 15.80, 139.51)
6 05/17/2016 14:46:51 ( 22.69, 163.46) 05/17/2016 14:50:27 ( 10.01, 160.44)
7 05/18/2016 03:37:26 ( 10.00, 145.61) 05/18/2016 03:41:02 ( 22.68, 142.60)
8 05/18/2016 14:30:56 ( 11.75, 165.60) 05/18/2016 14:31:25 ( 10.05, 165.21)
9 05/18/2016 16:09:20 ( 22.67, 142.83) 05/18/2016 16:12:55 ( 10.04, 139.83)
10 05/19/2016 03:18:24 ( 10.02, 150.36) 05/19/2016 03:21:59 ( 22.65, 147.36)
11 05/19/2016 15:50:18 ( 22.64, 147.58) 05/19/2016 15:53:53 ( 10.02, 144.58)
12 05/20/2016 02:59:23 ( 10.05, 155.11) 05/20/2016 03:02:58 ( 22.67, 152.11)
13 05/20/2016 15:31:16 ( 22.68, 152.35) 05/20/2016 15:34:51 ( 10.06, 149.35)
14 05/21/2016 02:40:20 ( 10.01, 159.88) 05/21/2016 02:43:56 ( 22.69, 156.87)
15 05/21/2016 15:12:14 ( 22.65, 157.10) 05/21/2016 15:15:49 ( 10.03, 154.10)
16 05/22/2016 02:21:19 ( 10.03, 164.63) 05/22/2016 02:24:54 ( 22.66, 161.63)
17 05/22/2016 14:53:12 ( 22.69, 161.86) 05/22/2016 14:56:48 ( 10.01, 158.85)
18 05/23/2016 03:43:47 ( 10.01, 144.02) 05/23/2016 03:47:23 ( 22.69, 141.01)
19 05/23/2016 14:35:21 ( 18.50, 165.59) 05/23/2016 14:37:45 ( 10.04, 163.61)
20 05/23/2016 16:15:40 ( 22.66, 141.24) 05/23/2016 16:17:42 ( 15.50, 139.50)
21 05/24/2016 03:24:45 ( 10.03, 148.77) 05/24/2016 03:28:20 ( 22.65, 145.77)
22 05/24/2016 15:56:38 ( 22.69, 146.00) 05/24/2016 16:00:14 ( 10.01, 142.99)
23
